Date,TemperatureHighF,TemperatureAvgF,TemperatureLowF,DewpointHighF,DewpointAvgF,DewpointLowF,HumidityHigh,HumidityAvg,HumidityLow,PressureMaxIn,PressureMinIn,WindSpeedMaxMPH,WindSpeedAvgMPH,GustSpeedMaxMPH,PrecipitationSumIn
2013-1-1,35.6,33.0,29.7,34.6,30.8,24.3,96,91,80,30.10,29.98,5,2,7,0.08
2013-1-2,34.1,27.8,23.5,25.5,22.4,17.6,91,81,54,30.21,30.09,5,2,6,0.01
2013-1-3,37.5,27.1,18.1,26.1,21.0,15.7,92,79,58,30.33,30.17,10,2,13,0.01
2013-1-4,37.5,31.4,25.2,27.0,25.3,22.6,90,78,63,30.35,30.29,13,3,19,0.00
2013-1-5,43.1,33.8,23.6,31.5,27.1,21.1,93,77,56,30.32,30.13,6,1,11,0.00
2013-1-6,39.2,35.2,24.6,34.2,29.0,21.4,88,78,71,30.33,30.03,12,4,17,0.00
2013-1-7,42.3,29.7,19.0,27.9,23.4,16.6,91,78,54,30.41,30.19,5,1,9,0.00
2013-1-8,54.5,36.7,23.9,35.8,29.7,21.5,93,78,49,30.26,30.16,6,1,11,0.00
2013-1-9,57.3,46.7,36.7,47.0,40.8,33.5,93,81,60,30.43,30.16,8,2,12,0.02
2013-1-10,51.8,44.5,37.1,50.1,40.2,32.6,96,85,62,30.42,29.96,8,4,11,0.20
2013-1-11,65.8,57.8,51.9,57.0,52.1,48.8,96,83,58,29.95,29.77,10,3,18,0.81
2013-1-12,67.0,62.8,58.2,63.2,59.9,53.2,96,90,83,29.93,29.68,6,2,9,0.02
2013-1-13,67.3,49.7,29.8,62.0,48.0,26.1,97,94,80,30.12,29.64,13,5,18,1.75
2013-1-14,31.5,27.2,24.3,26.7,22.8,20.7,88,83,74,30.40,30.12,9,4,12,0.00
2013-1-15,31.7,27.2,22.9,29.0,23.9,20.1,94,87,77,30.29,30.01,9,4,12,0.00
2013-1-16,33.9,31.4,30.0,30.7,29.1,28.0,93,91,86,30.08,29.96,5,2,6,0.03
2013-1-17,45.8,34.7,28.0,35.0,28.9,23.8,93,80,52,30.36,30.05,10,2,16,0.19
2013-1-18,44.1,32.6,21.4,30.0,23.9,19.4,92,72,48,30.48,30.22,5,2,9,0.02
2013-1-19,55.5,46.3,38.3,31.9,29.2,27.8,67,52,36,30.22,29.92,8,5,25,0.00
2013-1-20,48.7,37.3,27.0,36.0,18.9,7.8,77,49,30,30.19,29.95,10,5,13,0.00
2013-1-21,27.2,23.5,14.5,18.1,10.3,2.0,76,57,39,30.26,30.10,15,8,18,0.00
2013-1-22,20.7,15.0,9.9,4.7,0.5,-2.4,63,53,38,30.40,30.24,9,5,14,0.00
2013-1-23,36.4,24.4,12.0,21.1,12.5,4.3,82,61,44,30.35,30.06,6,2,11,0.00
2013-1-24,30.7,24.4,19.3,21.0,6.2,-3.3,71,48,27,30.52,30.10,11,5,15,0.00
2013-1-25,28.0,25.0,22.4,24.7,18.1,4.3,92,77,44,30.34,30.03,7,3,12,0.00
2013-1-26,38.9,27.9,17.9,24.0,21.0,15.4,93,77,49,30.35,30.13,4,1,6,0.01
2013-1-27,43.4,33.4,25.1,41.2,27.5,19.1,94,79,65,30.36,30.08,6,2,10,0.17
2013-1-28,56.8,51.1,44.2,52.7,47.4,41.3,95,87,75,30.09,29.99,6,3,11,0.21
2013-1-29,66.3,60.8,56.2,60.4,56.1,52.1,88,84,80,29.99,29.48,7,4,14,0.00
2013-1-30,68.2,51.6,31.5,61.4,47.3,24.7,97,86,73,29.62,29.24,17,8,28,0.98
2013-1-31,34.3,28.9,16.7,27.8,21.6,9.2,93,74,59,30.09,29.63,17,9,23,0.00